Location: Fort Frances
(48.6170°N, 93.4170°W)
Time: 07:56:18
(UTC-05:00)

ISS - All Passes

Search period start: 30 March 2015 00:00
Search period end: 09 April 2015 00:00
Orbit: 396 x 406 km, 51.6° (Epoch: 30 March)

Date Brightness Start Highest point End Pass type
(mag) Time Alt. Az. Time Alt. Az. Time Alt. Az.
30 Mar - 01:17:05 10° W 01:20:20 66° NNW 01:23:35 10° ENE night (unlit)
30 Mar - 02:53:50 10° WNW 02:57:00 48° N 03:00:10 10° E night (unlit)
30 Mar - 04:30:19 10° WNW 04:33:34 77° SSW 04:36:48 10° ESE visible
30 Mar - 06:07:27 10° W 06:09:34 16° SW 06:11:37 10° S visible
30 Mar - 22:48:22 10° S 22:50:48 20° SE 22:53:17 10° E night (unlit)
31 Mar - 00:23:37 10° WSW 00:26:53 89° S 00:30:09 10° ENE night (unlit)
31 Mar - 02:00:19 10° WNW 02:03:29 47° N 02:06:39 10° ENE night (unlit)
31 Mar - 03:36:53 10° WNW 03:40:08 74° NNE 03:43:22 10° ESE visible
31 Mar - 05:13:32 10° W 05:16:20 26° SW 05:19:06 10° SSE visible
31 Mar - 21:56:23 10° SSE 21:57:34 12° SE 21:58:52 10° ESE night (unlit)
31 Mar - 23:30:15 10° SW 23:33:28 59° SSE 23:36:41 10° ENE night (unlit)
01 Apr - 01:06:45 10° W 01:09:57 51° N 01:13:08 10° ENE night (unlit)
01 Apr - 02:43:25 10° WNW 02:46:38 57° NNE 02:49:50 10° E night (unlit)
01 Apr - 04:19:54 10° WNW 04:23:00 43° SSW 04:26:05 10° SE visible
01 Apr - 22:37:04 10° SW 22:40:04 36° SSE 22:43:07 10° ENE night (unlit)
02 Apr - 00:13:09 10° W 00:16:23 62° NNW 00:19:38 10° ENE night (unlit)
02 Apr - 01:49:53 10° WNW 01:53:04 48° N 01:56:14 10° E night (unlit)
02 Apr - 03:26:21 10° WNW 03:29:35 70° SSW 03:32:49 10° ESE night (unlit)
02 Apr - 05:03:40 10° WSW 05:05:33 14° SW 05:07:21 10° S visible
02 Apr - 21:44:09 10° SSW 21:46:44 22° SE 21:49:21 10° E visible
02 Apr - 23:19:35 10° WSW 23:22:51 84° NNW 23:26:07 10° ENE night (unlit)
03 Apr - 00:56:18 10° WNW 00:59:27 46° N 01:02:37 10° ENE night (unlit)
03 Apr - 02:32:50 10° WNW 02:36:05 79° NNE 02:39:20 10° ESE night (unlit)
03 Apr - 04:09:33 10° W 04:12:14 24° SW 04:14:54 10° SSE night (unlit)
03 Apr - 20:51:48 10° SSE 20:53:25 13° SE 20:55:06 10° ESE visible
03 Apr - 22:26:06 10° SW 22:29:20 65° SSE 22:32:35 10° ENE visible
04 Apr - 00:02:39 10° W 00:05:50 50° N 00:09:01 10° ENE night (unlit)
04 Apr - 01:39:17 10° WNW 01:42:31 60° NNE 01:45:44 10° E night (unlit)
04 Apr - 03:15:47 10° WNW 03:18:51 39° SSW 03:21:53 10° SE night (unlit)
04 Apr - 21:32:46 10° SW 21:35:51 40° SSE 21:38:56 10° ENE visible
04 Apr - 23:08:58 10° W 23:12:11 59° NNW 23:15:26 10° ENE visible
05 Apr - 00:45:41 10° WNW 00:48:52 50° N 00:52:03 10° E night (unlit)
05 Apr - 02:22:08 10° WNW 02:25:22 64° SSW 02:28:34 10° SE night (unlit)
05 Apr - 03:59:41 10° WSW 04:01:16 13° SW 04:02:46 10° SSW night (unlit)
05 Apr - 20:39:42 10° SSW 20:42:24 24° SE 20:45:09 10° E visible
05 Apr - 22:15:18 10° WSW 22:18:34 79° NNW 22:21:50 10° ENE visible
05 Apr - 23:52:01 10° WNW 23:55:12 46° N 23:58:21 10° ENE visible
06 Apr - 01:28:31 10° WNW 01:31:48 85° NNE 01:35:03 10° ESE night (unlit)
06 Apr - 03:05:19 10° W 03:07:54 21° SW 03:10:25 10° SSE night (unlit)
06 Apr - 19:47:06 10° S 19:48:59 15° SE 19:50:57 10° E daylight
06 Apr - 21:21:42 10° WSW 21:24:58 72° SSE 21:28:13 10° ENE visible
06 Apr - 22:58:17 10° W 23:01:29 48° N 23:04:39 10° ENE visible
07 Apr - 00:34:54 10° WNW 00:38:09 63° NNE 00:41:22 10° E night (unlit)
07 Apr - 02:11:25 10° W 02:14:26 35° SSW 02:17:26 10° SE night (unlit)
07 Apr - 20:28:15 10° SW 20:31:23 44° SSE 20:34:31 10° ENE visible
07 Apr - 22:04:31 10° W 22:07:45 57° NNW 22:10:58 10° ENE visible
07 Apr - 23:41:14 10° WNW 23:44:25 51° N 23:47:37 10° E visible
08 Apr - 01:17:40 10° WNW 01:20:53 58° SSW 01:24:04 10° SE night (unlit)
08 Apr - 02:55:33 10° WSW 02:56:45 11° SW 02:57:50 10° SSW night (unlit)
08 Apr - 19:35:01 10° SSW 19:37:50 27° SE 19:40:40 10° E daylight
08 Apr - 21:10:46 10° WSW 21:14:01 74° NNW 21:17:18 10° ENE visible
08 Apr - 22:47:29 10° WNW 22:50:40 47° N 22:53:50 10° ENE visible
